Location: Larch Mountain
(45.5297°N, 122.0872°W)
Time: 04:46:36
(UTC-07:00)

ISS - All Passes

Search period start: 04 July 2015 00:00
Search period end: 14 July 2015 00:00
Orbit: 398 x 403 km, 51.6° (Epoch: 03 July)

Date Brightness Start Highest point End Pass type
(mag) Time Alt. Az. Time Alt. Az. Time Alt. Az.
04 Jul - 07:56:07 10° SSE 07:57:36 13° SE 07:59:11 10° ESE daylight
04 Jul - 09:30:20 10° WSW 09:33:35 83° SSE 09:36:50 10° ENE daylight
04 Jul - 11:07:18 10° WNW 11:10:14 30° N 11:13:11 10° NE daylight
04 Jul - 12:44:19 10° NW 12:47:13 29° N 12:50:07 10° ENE daylight
04 Jul - 14:20:40 10° WNW 14:23:55 85° NNE 14:27:10 10° ESE daylight
04 Jul - 15:57:59 10° W 15:59:57 15° SW 16:01:51 10° S daylight
05 Jul - 08:37:00 10° SW 08:40:08 46° SE 08:43:16 10° ENE daylight
05 Jul - 10:13:30 10° W 10:16:35 38° NNW 10:19:39 10° NE daylight
05 Jul - 11:50:41 10° WNW 11:53:31 26° N 11:56:21 10° ENE daylight
05 Jul - 13:27:10 10° NW 13:30:22 53° NNE 13:33:33 10° ESE daylight
05 Jul - 15:03:49 10° W 15:06:37 26° SW 15:09:23 10° SSE daylight
06 Jul - 07:43:59 10° SSW 07:46:43 26° SE 07:49:30 10° E daylight
06 Jul - 09:19:46 10° WSW 09:22:58 55° NNW 09:26:10 10° ENE daylight
06 Jul - 10:56:58 10° WNW 10:59:48 27° N 11:02:38 10° ENE daylight
06 Jul - 12:33:40 10° NW 12:36:44 38° NNE 12:39:49 10° E daylight
06 Jul - 14:10:03 10° WNW 14:13:13 48° SW 14:16:20 10° SE daylight
07 Jul - 06:51:32 10° S 06:53:22 15° SE 06:55:18 10° E daylight
07 Jul - 08:26:08 10° WSW 08:29:23 88° NW 08:32:39 10° ENE daylight
07 Jul - 10:03:10 10° WNW 10:06:05 29° N 10:09:00 10° NE daylight
07 Jul - 11:40:07 10° NW 11:43:03 30° N 11:45:59 10° ENE daylight
07 Jul - 13:16:28 10° WNW 13:19:44 86° SSW 13:22:58 10° ESE daylight
07 Jul - 14:54:02 10° WSW 14:55:42 13° SW 14:57:17 10° SSW daylight
08 Jul - 07:32:43 10° SW 07:35:53 53° SE 07:39:04 10° ENE daylight
08 Jul - 09:09:20 10° W 09:12:23 36° NNW 09:15:26 10° NE daylight
08 Jul - 10:46:29 10° WNW 10:49:19 27° N 10:52:10 10° ENE daylight
08 Jul - 12:22:56 10° WNW 12:26:09 58° NNE 12:29:21 10° ESE daylight
08 Jul - 13:59:40 10° W 14:02:21 23° SW 14:04:59 10° SSE daylight
09 Jul - 06:39:34 10° SSW 06:42:25 29° SE 06:45:19 10° ENE daylight
09 Jul - 08:15:32 10° W 08:18:43 50° NNW 08:21:54 10° NE daylight
09 Jul - 09:52:45 10° WNW 09:55:35 26° N 09:58:24 10° ENE daylight
09 Jul - 11:29:24 10° NW 11:32:30 40° NNE 11:35:35 10° E daylight
09 Jul - 13:05:50 10° WNW 13:08:55 42° SW 13:12:00 10° SE daylight
10 Jul - 05:46:55 10° S 05:49:02 16° SE 05:51:12 10° E daylight
10 Jul - 07:21:51 10° WSW 07:25:06 79° NNW 07:28:21 10° ENE daylight
10 Jul - 08:58:55 10° WNW 09:01:49 29° N 09:04:43 10° NE daylight
10 Jul - 10:35:49 10° NW 10:38:47 31° NNE 10:41:45 10° ENE daylight
10 Jul - 12:12:10 10° WNW 12:15:25 77° SSW 12:18:39 10° SE daylight
10 Jul - 13:50:07 10° WSW 13:51:21 12° SW 13:52:28 10° SSW daylight
11 Jul - 06:28:19 10° SW 06:31:32 60° SSE 06:34:45 10° ENE daylight
11 Jul - 08:05:03 10° W 08:08:04 34° NNW 08:11:06 10° NE daylight
11 Jul - 09:42:11 10° NW 09:45:01 27° N 09:47:53 10° ENE daylight
11 Jul - 11:18:35 10° WNW 11:21:49 64° NNE 11:25:03 10° ESE daylight
11 Jul - 12:55:26 10° W 12:57:58 21° SW 13:00:28 10° S daylight
12 Jul - 05:35:05 10° SSW 05:38:02 33° SE 05:41:01 10° ENE daylight
12 Jul - 07:11:12 10° W 07:14:21 46° NNW 07:17:31 10° NE daylight
12 Jul - 08:48:25 10° WNW 08:51:15 26° N 08:54:04 10° ENE daylight
12 Jul - 10:25:01 10° NW 10:28:09 43° NNE 10:31:16 10° E daylight
12 Jul - 12:01:29 10° WNW 12:04:31 37° SW 12:07:32 10° SSE daylight
13 Jul - 04:42:16 10° S 04:44:35 19° SE 04:46:58 10° E visible
13 Jul - 06:17:27 10° WSW 06:20:41 72° NNW 06:23:57 10° ENE daylight
13 Jul - 07:54:34 10° WNW 07:57:27 28° N 08:00:19 10° NE daylight
13 Jul - 09:31:25 10° NW 09:34:24 33° NNE 09:37:24 10° E daylight
13 Jul - 11:07:46 10° WNW 11:11:00 68° SSW 11:14:13 10° SE daylight
13 Jul - 12:46:32 10° SW 12:46:53 10° SW 12:47:07 10° SW daylight
